FW7487 Weather Reports


Display with metric or nautical units.
time (UTC)temp
F
wind
direction
speed
MPH
gust
MPH
rain 1hr
in
rain 24hr
in
rain mn
in
humidity
%
barometer
mb
20260503044549 53 360 2.0 5.0 0.00 0.54 0.00 66 1018.0
20260503043048 54 360 2.0 4.0 0.00 0.54 0.00 65 1017.9
20260503041548 54 360 2.0 5.0 0.00 0.54 0.00 65 1017.8
20260503040044 53 360 3.0 6.0 0.00 0.54 0.00 68 1017.7
20260503034546 52 360 2.0 4.0 0.00 0.61 0.54 73 1017.6
20260503033057 51 360 1.0 3.0 0.00 0.61 0.54 76 1017.7
20260503031547 51 360 1.0 2.0 0.00 0.61 0.54 74 1017.6
20260503030048 51 0 0.0 0.0 0.00 0.61 0.54 74 1017.4
20260503024551 52 0 0.0 0.0 0.00 0.65 0.54 71 1017.1
20260503023050 52 0 0.0 0.0 0.00 0.65 0.54 69 1017.0
20260503021552 54 0 0.0 0.0 0.00 0.65 0.54 65 1016.7
20260503020049 55 0 0.0 0.0 0.00 0.65 0.54 62 1016.6
20260503014602 56 0 0.0 0.0 0.00 0.66 0.54 57 1016.4
20260503013047 58 360 1.0 3.0 0.00 0.66 0.54 52 1016.1
20260503011601 59 360 1.0 2.0 0.00 0.66 0.54 51 1015.9
20260503010042 60 360 0.0 3.0 0.00 0.66 0.54 48 1015.6
20260503004548 61 360 2.0 5.0 0.00 0.66 0.54 45 1015.5
20260503003050 62 360 3.0 6.0 0.00 0.66 0.54 43 1015.3
20260503001547 63 360 3.0 10.0 0.00 0.66 0.54 42 1015.0
20260503000047 64 360 4.0 10.0 0.00 0.66 0.54 42 1014.5
20260502234607 64 360 3.0 11.0 0.00 0.66 0.54 41 1014.3
20260502233044 65 360 8.0 15.0 0.00 0.66 0.54 39 1014.1
20260502231549 66 360 6.0 14.0 0.00 0.66 0.54 40 1013.9
20260502230055 67 360 4.0 15.0 0.00 0.66 0.54 41 1013.8
20260502224548 67 360 9.0 16.0 0.00 0.66 0.54 39 1013.5
20260502223059 68 360 7.0 23.0 0.00 0.66 0.54 39 1013.5
20260502221544 69 323 4.0 15.0 0.00 0.66 0.54 41 1013.2
20260502220043 70 306 8.0 16.0 0.00 0.66 0.54 40 1013.1
20260502214542 70 321 7.0 16.0 0.00 0.66 0.54 43 1012.8
20260502213051 71 314 7.0 15.0 0.00 0.66 0.54 43 1012.6
20260502211546 71 321 3.0 12.0 0.00 0.66 0.54 48 1012.4
20260502210049 70 360 5.0 12.0 0.00 0.66 0.54 50 1012.4
20260502204543 71 308 5.0 14.0 0.00 0.66 0.54 49 1012.4
20260502203051 72 328 2.0 12.0 0.00 0.66 0.54 50 1012.5
20260502201603 71 335 7.0 14.0 0.00 0.66 0.54 50 1012.5
20260502200058 71 331 7.0 16.0 0.00 0.66 0.54 48 1012.5
20260502194548 72 302 5.0 17.0 0.00 0.66 0.54 50 1012.6
20260502193057 70 360 4.0 11.0 0.00 0.66 0.54 54 1012.6
20260502191549 71 306 4.0 11.0 0.00 0.66 0.54 54 1012.6
20260502190046 70 360 6.0 16.0 0.00 0.66 0.54 55 1012.8
20260502184555 69 360 4.0 13.0 0.00 0.66 0.54 57 1012.8
20260502183049 69 360 6.0 15.0 0.00 0.66 0.54 58 1012.8
20260502181547 69 360 4.0 12.0 0.00 0.66 0.54 59 1013.0
20260502163046 64 360 4.0 10.0 0.00 0.66 0.54 76 1013.7
20260502161543 63 360 2.0 9.0 0.00 0.66 0.54 78 1013.7
20260502151609 58 360 3.0 9.0 0.00 0.66 0.54 93 1013.2
20260502123046 55 360 1.0 2.0 0.01 0.66 0.52 97 1013.7
20260502121545 54 0 0.0 4.0 0.01 0.65 0.52 97 1013.7
20260502114551 54 0 0.0 1.0 0.03 0.65 0.52 96 1013.1
20260502113058 54 0 0.0 3.0 0.05 0.65 0.52 96 1012.7
20260502111548 53 360 1.0 5.0 0.07 0.64 0.51 96 1011.6
20260502110048 53 0 0.0 4.0 0.08 0.64 0.51 96 1011.5
20260502104552 53 0 1.0 3.0 0.06 0.62 0.49 96 1013.1
20260502103051 53 360 2.0 3.0 0.05 0.60 0.47 96 1013.1
20260502101607 54 0 0.0 3.0 0.03 0.57 0.44 96 1012.8
20260502070106 54 0 0.0 2.0 0.13 0.41 0.28 95 1012.9
20260502064552 54 0 0.0 2.0 0.11 0.37 0.24 95 1013.2
20260502063046 54 360 0.0 3.0 0.11 0.34 0.21 95 1013.5
20260502061543 54 0 0.0 2.0 0.10 0.31 0.18 95 1014.2
20260502060045 55 0 1.0 4.0 0.09 0.28 0.15 95 1014.2
20260502054558 56 360 1.0 5.0 0.09 0.26 0.13 95 1014.6
20260502053052 56 360 0.0 3.0 0.07 0.23 0.10 95 1014.3
20260502051550 56 0 0.0 0.0 0.06 0.21 0.08 95 1014.4